User: anonymous
Location: SAPM � Hemmingford
(45.0500°N, 73.5833°W)
Time: 20:08:35
(UTC-04:00)
Language:

Cosmos 1603 - Orbit

View from above orbital plane
View from above orbital plane
View from above satellite
View from above satellite

Ground track
Ground track

The orbit data is extracted from the following two-line orbital elements,

1 15333U 84106A   14264.14698699 -.00000239  00000-0 -10090-3 0   858
2 15333 071.0299 026.2721 0022322 288.4875 136.8398 14.13952337546908
Epoch (UTC): 21 September 2014 03:31:39
Eccentricity: 0.0022322
inclination: 71.0299°
perigee height: 830 km
apogee height: 862 km
right ascension of ascending node: 26.2721°
argument of perigee: 288.4875°
revolutions per day: 14.13952337
mean anomaly at epoch: 136.8398°
orbit number at epoch: 54690

The dashed part of the orbit path shows where the satellite is in the earth's shadow,  

DLR